Time,TemperatureF,DewpointF,PressureIn,WindDirection,WindDirectionDegrees,WindSpeedMPH,WindSpeedGustMPH,Humidity,HourlyPrecipIn,Conditions,Clouds,dailyrainin,SoftwareType,DateUTC
2013-10-24 00:00:00,50.2,42.6,29.58,East,90,3.8,6.0,68,0.00,,,0.25,fowsr,2013-10-24 04:00:00,
2013-10-24 00:05:00,50.2,42.6,29.58,SE,135,3.1,6.0,68,0.00,,,0.25,fowsr,2013-10-24 04:05:00,
2013-10-24 00:10:00,50.2,42.3,29.58,South,180,3.8,7.6,67,0.00,,,0.25,fowsr,2013-10-24 04:10:00,
2013-10-24 00:15:00,50.2,42.3,29.59,East,90,3.8,9.8,67,0.00,,,0.25,fowsr,2013-10-24 04:15:00,
2013-10-24 00:20:00,50.0,41.9,29.59,East,90,3.8,6.9,66,0.00,,,0.25,fowsr,2013-10-24 04:20:00,
2013-10-24 00:25:00,50.0,42.1,29.59,NW,315,3.8,8.3,67,0.00,,,0.25,fowsr,2013-10-24 04:25:00,
2013-10-24 00:30:00,50.2,42.3,29.59,SW,225,3.1,8.3,67,0.00,,,0.25,fowsr,2013-10-24 04:30:00,
2013-10-24 00:35:00,50.2,42.9,29.59,East,90,2.2,4.5,69,0.00,,,0.25,fowsr,2013-10-24 04:35:00,
2013-10-24 00:40:00,50.0,42.4,29.59,NE,45,2.2,4.5,68,0.00,,,0.25,fowsr,2013-10-24 04:40:00,
2013-10-24 00:45:00,50.0,42.1,29.59,NW,315,2.2,3.8,67,0.00,,,0.25,fowsr,2013-10-24 04:45:00,
2013-10-24 00:50:00,49.8,42.8,29.60,SW,225,5.4,9.8,70,0.00,,,0.25,fowsr,2013-10-24 04:50:00,
2013-10-24 00:55:00,49.8,42.8,29.60,SE,135,3.1,8.3,70,0.00,,,0.25,fowsr,2013-10-24 04:55:00,
2013-10-24 01:00:00,49.8,43.4,29.61,NW,315,2.2,5.4,72,0.00,,,0.25,fowsr,2013-10-24 05:00:00,
2013-10-24 01:05:00,49.8,43.4,29.61,NE,45,3.1,8.3,72,0.00,,,0.25,fowsr,2013-10-24 05:05:00,
2013-10-24 01:10:00,49.6,42.6,29.61,SW,225,6.9,12.1,70,0.00,,,0.25,fowsr,2013-10-24 05:10:00,
2013-10-24 01:15:00,49.6,42.9,29.61,South,180,4.5,9.8,71,0.00,,,0.25,fowsr,2013-10-24 05:15:00,
2013-10-24 01:20:00,49.5,42.7,29.61,SE,135,3.1,7.6,71,0.00,,,0.25,fowsr,2013-10-24 05:20:00,
2013-10-24 01:25:00,49.5,43.0,29.61,South,180,3.1,5.4,72,0.00,,,0.25,fowsr,2013-10-24 05:25:00,
2013-10-24 01:30:00,49.5,42.7,29.61,East,90,6.9,13.0,71,0.00,,,0.25,fowsr,2013-10-24 05:30:00,
2013-10-24 01:35:00,49.3,42.3,29.61,East,90,5.4,8.3,70,0.00,,,0.25,fowsr,2013-10-24 05:35:00,
2013-10-24 01:40:00,49.3,42.3,29.61,East,90,6.9,14.5,70,0.00,,,0.25,fowsr,2013-10-24 05:40:00,
2013-10-24 01:45:00,49.1,42.4,29.62,SE,135,3.1,6.9,71,0.00,,,0.25,fowsr,2013-10-24 05:45:00,
2013-10-24 01:50:00,49.1,42.4,29.61,East,90,3.8,6.9,71,0.00,,,0.25,fowsr,2013-10-24 05:50:00,
2013-10-24 01:55:00,49.1,42.4,29.62,East,90,5.4,9.8,71,0.00,,,0.25,fowsr,2013-10-24 05:55:00,
2013-10-24 02:00:00,49.1,42.4,29.62,SSE,157,3.1,6.0,71,0.00,,,0.25,fowsr,2013-10-24 06:00:00,
2013-10-24 02:05:00,48.9,42.0,29.62,SE,135,6.9,12.1,70,0.00,,,0.25,fowsr,2013-10-24 06:05:00,
2013-10-24 02:10:00,48.7,42.1,29.63,North,0,3.8,8.3,71,0.00,,,0.25,fowsr,2013-10-24 06:10:00,
2013-10-24 02:15:00,48.7,42.1,29.63,West,270,3.8,6.0,71,0.00,,,0.25,fowsr,2013-10-24 06:15:00,
2013-10-24 02:20:00,48.7,42.6,29.63,East,90,3.8,10.7,73,0.00,,,0.25,fowsr,2013-10-24 06:20:00,
2013-10-24 02:25:00,48.6,42.1,29.63,NE,45,5.4,9.2,72,0.00,,,0.25,fowsr,2013-10-24 06:25:00,
2013-10-24 02:30:00,48.4,42.0,29.63,East,90,4.5,7.6,72,0.00,,,0.25,fowsr,2013-10-24 06:30:00,
2013-10-24 02:35:00,48.4,42.0,29.64,East,90,3.1,8.3,72,0.00,,,0.25,fowsr,2013-10-24 06:35:00,
2013-10-24 02:40:00,48.4,42.0,29.64,SE,135,4.5,9.8,72,0.00,,,0.25,fowsr,2013-10-24 06:40:00,
2013-10-24 02:45:00,48.4,42.0,29.64,South,180,5.4,9.2,72,0.00,,,0.25,fowsr,2013-10-24 06:45:00,
2013-10-24 02:50:00,48.2,42.3,29.64,SW,225,3.8,9.8,74,0.00,,,0.25,fowsr,2013-10-24 06:50:00,
2013-10-24 02:55:00,48.2,42.1,29.64,NW,315,2.2,3.8,73,0.00,,,0.25,fowsr,2013-10-24 06:55:00,
2013-10-24 03:05:00,48.0,42.2,29.64,East,90,4.5,8.3,74,0.00,,,0.25,fowsr,2013-10-24 07:05:00,
2013-10-24 03:10:00,48.0,42.4,29.64,SE,135,3.8,11.4,75,0.00,,,0.25,fowsr,2013-10-24 07:10:00,
2013-10-24 03:15:00,48.0,42.4,29.64,East,90,2.2,5.4,75,0.00,,,0.25,fowsr,2013-10-24 07:15:00,
2013-10-24 03:20:00,47.8,42.0,29.64,NE,45,2.2,5.4,74,0.00,,,0.25,fowsr,2013-10-24 07:20:00,
2013-10-24 03:25:00,48.0,42.4,29.64,NE,45,2.2,3.1,75,0.00,,,0.25,fowsr,2013-10-24 07:25:00,
2013-10-24 03:30:00,48.0,42.2,29.65,SE,135,5.4,8.3,74,0.00,,,0.25,fowsr,2013-10-24 07:30:00,
2013-10-24 03:35:00,47.8,41.7,29.65,East,90,4.5,9.8,73,0.00,,,0.25,fowsr,2013-10-24 07:35:00,
2013-10-24 03:40:00,47.8,41.7,29.65,NE,45,2.2,3.1,73,0.00,,,0.25,fowsr,2013-10-24 07:40:00,
2013-10-24 03:45:00,47.8,41.7,29.65,SW,225,3.1,6.0,73,0.00,,,0.25,fowsr,2013-10-24 07:45:00,
2013-10-24 03:50:00,47.8,41.5,29.65,SE,135,3.1,6.0,72,0.00,,,0.25,fowsr,2013-10-24 07:50:00,
2013-10-24 03:55:00,48.0,41.9,29.64,SW,225,2.2,4.5,73,0.00,,,0.25,fowsr,2013-10-24 07:55:00,
2013-10-24 04:00:00,48.0,42.4,29.65,South,180,3.1,4.5,75,0.00,,,0.25,fowsr,2013-10-24 08:00:00,
2013-10-24 04:05:00,48.0,41.9,29.65,South,180,6.0,10.7,73,0.00,,,0.25,fowsr,2013-10-24 08:05:00,
2013-10-24 04:10:00,48.0,41.9,29.65,NW,315,2.2,3.8,73,0.00,,,0.25,fowsr,2013-10-24 08:10:00,
2013-10-24 04:15:00,48.0,42.2,29.65,SE,135,3.1,8.3,74,0.00,,,0.25,fowsr,2013-10-24 08:15:00,
2013-10-24 04:20:00,47.8,41.7,29.65,NE,45,6.0,8.3,73,0.00,,,0.25,fowsr,2013-10-24 08:20:00,
2013-10-24 04:25:00,47.8,41.5,29.65,NE,45,3.1,4.5,72,0.00,,,0.25,fowsr,2013-10-24 08:25:00,
2013-10-24 04:35:00,47.8,41.7,29.66,NE,45,4.5,10.7,73,0.00,,,0.25,fowsr,2013-10-24 08:35:00,
2013-10-24 04:40:00,47.7,41.6,29.66,SE,135,2.2,5.4,73,0.00,,,0.25,fowsr,2013-10-24 08:40:00,
2013-10-24 04:45:00,47.7,41.3,29.66,NW,315,3.8,6.0,72,0.00,,,0.25,fowsr,2013-10-24 08:45:00,
2013-10-24 04:50:00,47.7,41.3,29.67,SE,135,3.1,9.2,72,0.00,,,0.25,fowsr,2013-10-24 08:50:00,
2013-10-24 04:55:00,47.8,41.2,29.67,SE,135,3.8,7.6,71,0.00,,,0.25,fowsr,2013-10-24 08:55:00,
2013-10-24 05:00:00,47.7,41.0,29.67,SE,135,3.1,6.9,71,0.00,,,0.25,fowsr,2013-10-24 09:00:00,
2013-10-24 05:05:00,47.7,41.0,29.67,North,0,2.2,5.4,71,0.00,,,0.25,fowsr,2013-10-24 09:05:00,
2013-10-24 05:10:00,47.7,41.6,29.67,South,180,4.5,8.3,73,0.00,,,0.25,fowsr,2013-10-24 09:10:00,
2013-10-24 05:20:00,47.5,41.1,29.68,SW,225,3.8,6.9,72,0.00,,,0.25,fowsr,2013-10-24 09:20:00,
2013-10-24 05:25:00,47.3,40.4,29.68,NE,45,3.8,9.2,70,0.00,,,0.25,fowsr,2013-10-24 09:25:00,
2013-10-24 05:35:00,47.3,40.4,29.68,NE,45,2.2,7.6,70,0.00,,,0.25,fowsr,2013-10-24 09:35:00,
2013-10-24 05:40:00,47.3,40.7,29.69,East,90,3.1,4.5,71,0.00,,,0.25,fowsr,2013-10-24 09:40:00,
2013-10-24 05:45:00,47.3,40.4,29.69,South,180,3.8,9.8,70,0.00,,,0.25,fowsr,2013-10-24 09:45:00,
2013-10-24 05:50:00,47.3,40.7,29.69,East,90,3.8,9.8,71,0.00,,,0.25,fowsr,2013-10-24 09:50:00,
2013-10-24 05:55:00,47.3,40.4,29.69,NE,45,3.8,6.0,70,0.00,,,0.25,fowsr,2013-10-24 09:55:00,
2013-10-24 06:00:00,47.1,40.2,29.69,East,90,6.0,12.1,70,0.00,,,0.25,fowsr,2013-10-24 10:00:00,
2013-10-24 06:05:00,47.1,40.8,29.70,South,180,3.8,6.0,72,0.00,,,0.25,fowsr,2013-10-24 10:05:00,
2013-10-24 06:10:00,47.1,40.5,29.70,SE,135,6.0,9.8,71,0.00,,,0.25,fowsr,2013-10-24 10:10:00,
2013-10-24 06:15:00,47.1,40.8,29.70,East,90,1.6,3.1,72,0.00,,,0.25,fowsr,2013-10-24 10:15:00,
2013-10-24 06:20:00,47.1,40.5,29.70,ESE,112,3.8,9.8,71,0.00,,,0.25,fowsr,2013-10-24 10:20:00,
2013-10-24 06:25:00,47.1,40.5,29.71,East,90,5.4,12.1,71,0.00,,,0.25,fowsr,2013-10-24 10:25:00,
2013-10-24 06:30:00,47.1,40.2,29.71,East,90,4.5,13.0,70,0.00,,,0.25,fowsr,2013-10-24 10:30:00,
2013-10-24 06:35:00,47.1,40.2,29.71,NE,45,3.8,6.9,70,0.00,,,0.25,fowsr,2013-10-24 10:35:00,
2013-10-24 06:40:00,47.1,40.5,29.71,West,270,3.1,5.4,71,0.00,,,0.25,fowsr,2013-10-24 10:40:00,
2013-10-24 06:45:00,47.1,40.5,29.71,NE,45,3.8,9.8,71,0.00,,,0.25,fowsr,2013-10-24 10:45:00,
2013-10-24 06:50:00,47.1,40.5,29.71,South,180,3.8,6.9,71,0.00,,,0.25,fowsr,2013-10-24 10:50:00,
2013-10-24 06:55:00,47.1,40.2,29.72,South,180,2.2,5.4,70,0.00,,,0.25,fowsr,2013-10-24 10:55:00,
2013-10-24 07:00:00,47.1,40.2,29.72,East,90,7.6,10.7,70,0.00,,,0.25,fowsr,2013-10-24 11:00:00,
2013-10-24 07:05:00,46.9,40.1,29.72,South,180,3.1,4.5,70,0.00,,,0.25,fowsr,2013-10-24 11:05:00,
2013-10-24 07:10:00,46.9,40.1,29.72,SE,135,5.4,12.1,70,0.00,,,0.25,fowsr,2013-10-24 11:10:00,
2013-10-24 07:15:00,46.9,39.8,29.72,South,180,2.2,5.4,69,0.00,,,0.25,fowsr,2013-10-24 11:15:00,
2013-10-24 07:20:00,46.9,40.6,29.72,East,90,3.1,4.5,72,0.00,,,0.25,fowsr,2013-10-24 11:20:00,
2013-10-24 07:25:00,46.9,40.6,29.72,East,90,3.8,9.2,72,0.00,,,0.25,fowsr,2013-10-24 11:25:00,
2013-10-24 07:30:00,46.9,40.3,29.72,SW,225,4.5,7.6,71,0.00,,,0.25,fowsr,2013-10-24 11:30:00,
2013-10-24 07:35:00,46.9,40.1,29.73,SE,135,3.8,6.0,70,0.00,,,0.25,fowsr,2013-10-24 11:35:00,
2013-10-24 07:40:00,47.1,40.5,29.73,South,180,5.4,10.7,71,0.00,,,0.25,fowsr,2013-10-24 11:40:00,
2013-10-24 07:45:00,47.1,40.5,29.73,East,90,5.4,6.9,71,0.00,,,0.25,fowsr,2013-10-24 11:45:00,
2013-10-24 07:50:00,47.3,40.7,29.73,East,90,3.1,5.4,71,0.00,,,0.24,fowsr,2013-10-24 11:50:00,
2013-10-24 07:55:00,47.3,40.4,29.74,South,180,3.1,5.4,70,0.00,,,0.24,fowsr,2013-10-24 11:55:00,
2013-10-24 08:00:00,47.3,40.4,29.74,North,0,3.8,9.2,70,0.00,,,0.24,fowsr,2013-10-24 12:00:00,
2013-10-24 08:05:00,47.3,40.7,29.74,East,90,3.1,12.1,71,0.00,,,0.22,fowsr,2013-10-24 12:05:00,
2013-10-24 08:10:00,47.5,40.9,29.75,South,180,3.8,4.5,71,0.00,,,0.21,fowsr,2013-10-24 12:10:00,
2013-10-24 08:15:00,47.5,40.9,29.75,NE,45,1.6,2.2,71,0.00,,,0.20,fowsr,2013-10-24 12:15:00,
2013-10-24 08:20:00,47.7,40.8,29.75,NW,315,5.4,9.8,70,0.00,,,0.19,fowsr,2013-10-24 12:20:00,
2013-10-24 08:25:00,47.7,40.5,29.75,NE,45,3.1,6.0,69,0.00,,,0.19,fowsr,2013-10-24 12:25:00,
2013-10-24 08:30:00,47.8,40.4,29.75,SE,135,3.1,6.9,68,0.00,,,0.19,fowsr,2013-10-24 12:30:00,
2013-10-24 08:35:00,48.0,40.8,29.75,North,0,3.1,7.6,69,0.00,,,0.19,fowsr,2013-10-24 12:35:00,
2013-10-24 08:40:00,48.0,40.6,29.75,South,180,5.4,7.6,68,0.00,,,0.18,fowsr,2013-10-24 12:40:00,
2013-10-24 08:45:00,48.0,40.6,29.75,East,90,3.8,6.9,68,0.00,,,0.18,fowsr,2013-10-24 12:45:00,
2013-10-24 08:50:00,48.2,40.4,29.76,South,180,7.6,11.4,67,0.00,,,0.18,fowsr,2013-10-24 12:50:00,
2013-10-24 08:55:00,48.4,40.6,29.76,South,180,3.8,6.0,67,0.00,,,0.18,fowsr,2013-10-24 12:55:00,
2013-10-24 09:00:00,48.6,40.5,29.77,East,90,4.5,6.0,66,0.00,,,0.18,fowsr,2013-10-24 13:00:00,
2013-10-24 09:05:00,48.7,40.4,29.76,East,90,3.8,7.6,65,0.00,,,0.18,fowsr,2013-10-24 13:05:00,
2013-10-24 09:10:00,48.7,40.4,29.77,East,90,2.2,5.4,65,0.00,,,0.18,fowsr,2013-10-24 13:10:00,
2013-10-24 09:15:00,48.9,40.8,29.76,South,180,3.1,6.9,66,0.00,,,0.18,fowsr,2013-10-24 13:15:00,
2013-10-24 09:20:00,49.1,41.0,29.77,NE,45,3.8,7.6,66,0.00,,,0.18,fowsr,2013-10-24 13:20:00,
2013-10-24 09:25:00,48.9,40.8,29.76,NE,45,3.8,9.8,66,0.00,,,0.18,fowsr,2013-10-24 13:25:00,
2013-10-24 09:30:00,49.1,41.0,29.77,SE,135,4.5,9.2,66,0.00,,,0.18,fowsr,2013-10-24 13:30:00,
2013-10-24 09:35:00,49.3,41.2,29.77,SE,135,5.4,9.8,66,0.00,,,0.18,fowsr,2013-10-24 13:35:00,
2013-10-24 09:40:00,49.6,41.5,29.77,NE,45,3.1,5.4,66,0.00,,,0.18,fowsr,2013-10-24 13:40:00,
2013-10-24 09:45:00,49.5,41.9,29.77,ESE,112,4.5,6.9,68,0.00,,,0.18,fowsr,2013-10-24 13:45:00,
2013-10-24 09:50:00,49.5,41.9,29.77,NE,45,8.3,10.7,68,0.00,,,0.18,fowsr,2013-10-24 13:50:00,
2013-10-24 09:55:00,49.6,41.5,29.77,SE,135,3.1,7.6,66,0.00,,,0.18,fowsr,2013-10-24 13:55:00,
2013-10-24 10:00:00,49.6,41.2,29.77,East,90,8.3,13.0,65,0.00,,,0.17,fowsr,2013-10-24 14:00:00,
2013-10-24 10:05:00,49.6,41.5,29.77,NE,45,5.4,13.0,66,0.00,,,0.17,fowsr,2013-10-24 14:05:00,
2013-10-24 10:10:00,49.6,41.5,29.77,ENE,67,4.5,10.7,66,0.00,,,0.15,fowsr,2013-10-24 14:10:00,
2013-10-24 10:15:00,49.8,41.7,29.77,SE,135,7.6,11.4,66,0.00,,,0.14,fowsr,2013-10-24 14:15:00,
2013-10-24 10:20:00,49.6,41.8,29.77,East,90,6.0,9.8,67,0.00,,,0.14,fowsr,2013-10-24 14:20:00,
2013-10-24 10:25:00,49.8,41.7,29.77,East,90,5.4,12.1,66,0.00,,,0.13,fowsr,2013-10-24 14:25:00,
2013-10-24 10:30:00,50.0,41.6,29.77,SE,135,3.1,5.4,65,0.00,,,0.13,fowsr,2013-10-24 14:30:00,
2013-10-24 10:35:00,50.2,41.7,29.77,East,90,4.5,8.3,65,0.00,,,0.13,fowsr,2013-10-24 14:35:00,
2013-10-24 10:40:00,50.2,41.4,29.77,SE,135,4.5,6.9,64,0.00,,,0.13,fowsr,2013-10-24 14:40:00,
2013-10-24 10:45:00,50.4,41.6,29.77,NE,45,2.2,3.8,64,0.00,,,0.11,fowsr,2013-10-24 14:45:00,
2013-10-24 10:50:00,50.5,41.5,29.77,East,90,3.1,7.6,63,0.00,,,0.11,fowsr,2013-10-24 14:50:00,
2013-10-24 10:55:00,50.5,41.8,29.77,East,90,6.0,10.7,64,0.00,,,0.09,fowsr,2013-10-24 14:55:00,
2013-10-24 11:00:00,50.5,41.8,29.77,NE,45,5.4,6.9,64,0.00,,,0.09,fowsr,2013-10-24 15:00:00,
2013-10-24 11:05:00,50.5,41.8,29.77,SE,135,6.9,13.6,64,0.00,,,0.09,fowsr,2013-10-24 15:05:00,
2013-10-24 11:10:00,50.5,41.5,29.76,ESE,112,5.4,9.2,63,0.00,,,0.09,fowsr,2013-10-24 15:10:00,
2013-10-24 11:15:00,50.9,41.8,29.77,East,90,6.0,10.7,63,0.00,,,0.08,fowsr,2013-10-24 15:15:00,
2013-10-24 11:20:00,51.1,42.0,29.76,SW,225,3.8,6.0,63,0.00,,,0.08,fowsr,2013-10-24 15:20:00,
2013-10-24 11:25:00,51.3,41.2,29.76,East,90,5.4,9.2,60,0.00,,,0.08,fowsr,2013-10-24 15:25:00,
2013-10-24 11:30:00,50.9,41.2,29.76,NE,45,4.5,7.6,61,0.00,,,0.08,fowsr,2013-10-24 15:30:00,
2013-10-24 11:35:00,50.9,41.5,29.76,East,90,5.4,8.3,62,0.00,,,0.08,fowsr,2013-10-24 15:35:00,
2013-10-24 11:40:00,50.7,41.3,29.76,SE,135,3.1,7.6,62,0.00,,,0.08,fowsr,2013-10-24 15:40:00,
2013-10-24 11:45:00,51.1,42.0,29.76,East,90,8.3,11.4,63,0.00,,,0.08,fowsr,2013-10-24 15:45:00,
2013-10-24 11:50:00,51.3,41.2,29.75,East,90,6.9,13.0,60,0.00,,,0.07,fowsr,2013-10-24 15:50:00,
2013-10-24 11:55:00,51.4,41.4,29.75,SE,135,4.5,6.9,60,0.00,,,0.07,fowsr,2013-10-24 15:55:00,
2013-10-24 12:00:00,51.6,41.6,29.75,East,90,5.4,10.7,60,0.00,,,0.07,fowsr,2013-10-24 16:00:00,
2013-10-24 12:05:00,52.0,41.6,29.75,South,180,5.4,9.8,59,0.00,,,0.07,fowsr,2013-10-24 16:05:00,
2013-10-24 12:10:00,52.2,41.1,29.75,NE,45,3.8,6.0,57,0.00,,,0.06,fowsr,2013-10-24 16:10:00,
2013-10-24 12:15:00,52.3,41.3,29.75,ENE,67,6.0,9.8,57,0.00,,,0.06,fowsr,2013-10-24 16:15:00,
2013-10-24 12:20:00,52.5,41.1,29.75,East,90,3.1,6.9,56,0.00,,,0.06,fowsr,2013-10-24 16:20:00,
2013-10-24 12:25:00,52.5,40.4,29.75,SW,225,4.5,12.1,54,0.00,,,0.06,fowsr,2013-10-24 16:25:00,
2013-10-24 12:30:00,52.2,40.1,29.74,East,90,3.8,8.3,54,0.00,,,0.06,fowsr,2013-10-24 16:30:00,
2013-10-24 12:35:00,52.3,39.9,29.74,SE,135,5.4,7.6,53,0.00,,,0.06,fowsr,2013-10-24 16:35:00,
2013-10-24 12:45:00,52.9,40.0,29.74,North,0,4.5,9.2,52,0.00,,,0.06,fowsr,2013-10-24 16:45:00,
2013-10-24 12:50:00,53.4,41.2,29.74,SE,135,6.0,9.2,54,0.00,,,0.06,fowsr,2013-10-24 16:50:00,
2013-10-24 12:55:00,54.1,40.8,29.73,SE,135,3.8,7.6,51,0.00,,,0.06,fowsr,2013-10-24 16:55:00,
2013-10-24 13:00:00,54.5,41.1,29.74,East,90,7.6,11.4,51,0.00,,,0.06,fowsr,2013-10-24 17:00:00,
2013-10-24 13:05:00,54.7,40.5,29.73,East,90,5.4,10.7,49,0.00,,,0.06,fowsr,2013-10-24 17:05:00,
2013-10-24 13:10:00,55.2,40.2,29.73,NE,45,9.2,15.2,47,0.00,,,0.06,fowsr,2013-10-24 17:10:00,
2013-10-24 13:15:00,54.7,38.9,29.73,East,90,4.5,8.3,45,0.00,,,0.06,fowsr,2013-10-24 17:15:00,
2013-10-24 13:20:00,53.8,38.1,29.73,East,90,6.9,9.2,45,0.00,,,0.06,fowsr,2013-10-24 17:20:00,
2013-10-24 13:25:00,53.1,38.7,29.73,NE,45,6.9,12.1,48,0.00,,,0.06,fowsr,2013-10-24 17:25:00,
2013-10-24 13:30:00,52.9,39.3,29.73,ESE,112,11.4,16.8,50,0.00,,,0.06,fowsr,2013-10-24 17:30:00,
2013-10-24 13:35:00,52.5,38.2,29.72,South,180,6.9,9.2,48,0.00,,,0.06,fowsr,2013-10-24 17:35:00,
2013-10-24 13:40:00,52.5,39.0,29.72,East,90,6.9,10.7,50,0.00,,,0.06,fowsr,2013-10-24 17:40:00,
2013-10-24 13:45:00,53.1,39.1,29.72,ENE,67,6.9,13.0,49,0.00,,,0.06,fowsr,2013-10-24 17:45:00,
2013-10-24 13:50:00,53.6,37.1,29.72,East,90,9.2,13.0,43,0.00,,,0.06,fowsr,2013-10-24 17:50:00,
2013-10-24 13:55:00,54.0,37.5,29.72,SE,135,7.6,15.9,43,0.00,,,0.06,fowsr,2013-10-24 17:55:00,
2013-10-24 14:00:00,53.6,37.1,29.72,East,90,6.9,13.6,43,0.00,,,0.05,fowsr,2013-10-24 18:00:00,
2013-10-24 14:05:00,52.9,36.5,29.72,East,90,6.9,9.8,43,0.00,,,0.04,fowsr,2013-10-24 18:05:00,
2013-10-24 14:10:00,52.5,36.2,29.72,East,90,6.0,11.4,43,0.00,,,0.02,fowsr,2013-10-24 18:10:00,
2013-10-24 14:15:00,52.5,36.6,29.72,NNE,22,6.9,12.1,44,0.00,,,0.01,fowsr,2013-10-24 18:15:00,
2013-10-24 14:20:00,52.5,37.8,29.72,SE,135,3.8,9.8,47,0.00,,,0.01,fowsr,2013-10-24 18:20:00,
2013-10-24 14:25:00,52.5,37.8,29.73,NE,45,4.5,7.6,47,0.00,,,0.01,fowsr,2013-10-24 18:25:00,
2013-10-24 14:30:00,52.3,38.0,29.72,East,90,5.4,9.2,48,0.00,,,0.01,fowsr,2013-10-24 18:30:00,
2013-10-24 14:35:00,52.2,37.1,29.73,South,180,6.9,9.8,46,0.00,,,0.01,fowsr,2013-10-24 18:35:00,
2013-10-24 14:40:00,52.2,37.1,29.73,NE,45,6.0,13.6,46,0.00,,,0.01,fowsr,2013-10-24 18:40:00,
2013-10-24 14:45:00,52.0,37.3,29.73,North,0,3.8,8.3,47,0.00,,,0.01,fowsr,2013-10-24 18:45:00,
2013-10-24 14:50:00,52.0,38.1,29.73,NE,45,8.3,14.5,49,0.00,,,0.01,fowsr,2013-10-24 18:50:00,
2013-10-24 14:55:00,52.0,37.7,29.73,SE,135,4.5,7.6,48,0.00,,,0.01,fowsr,2013-10-24 18:55:00,
2013-10-24 15:00:00,52.0,37.3,29.73,SE,135,6.9,11.4,47,0.00,,,0.01,fowsr,2013-10-24 19:00:00,
2013-10-24 15:05:00,52.0,35.7,29.73,NE,45,3.1,9.2,43,0.00,,,0.01,fowsr,2013-10-24 19:05:00,
2013-10-24 15:10:00,52.3,36.0,29.73,SE,135,6.0,13.0,43,0.00,,,0.01,fowsr,2013-10-24 19:10:00,
2013-10-24 15:15:00,53.1,36.7,29.73,East,90,7.6,14.5,43,0.00,,,0.01,fowsr,2013-10-24 19:15:00,
2013-10-24 15:20:00,52.3,36.0,29.73,East,90,7.6,10.7,43,0.00,,,0.01,fowsr,2013-10-24 19:20:00,
2013-10-24 15:25:00,51.8,36.0,29.73,SE,135,9.2,15.2,44,0.00,,,0.01,fowsr,2013-10-24 19:25:00,
2013-10-24 15:30:00,51.8,36.8,29.73,NE,45,6.0,10.7,46,0.00,,,0.01,fowsr,2013-10-24 19:30:00,
2013-10-24 15:35:00,52.2,38.3,29.74,NE,45,6.9,14.5,49,0.00,,,0.01,fowsr,2013-10-24 19:35:00,
2013-10-24 15:40:00,52.2,35.9,29.74,East,90,7.6,11.4,43,0.00,,,0.01,fowsr,2013-10-24 19:40:00,
2013-10-24 15:45:00,52.0,35.3,29.74,East,90,9.2,13.0,42,0.00,,,0.01,fowsr,2013-10-24 19:45:00,
2013-10-24 15:50:00,52.0,36.1,29.75,East,90,9.2,12.1,44,0.00,,,0.01,fowsr,2013-10-24 19:50:00,
2013-10-24 15:55:00,51.6,36.6,29.75,SE,135,6.9,11.4,46,0.00,,,0.01,fowsr,2013-10-24 19:55:00,
2013-10-24 16:00:00,51.4,36.4,29.75,SE,135,7.6,11.4,46,0.00,,,0.01,fowsr,2013-10-24 20:00:00,
2013-10-24 16:05:00,51.3,37.4,29.75,NE,45,7.6,13.0,49,0.00,,,0.01,fowsr,2013-10-24 20:05:00,
2013-10-24 16:10:00,51.3,37.1,29.75,NE,45,5.4,9.2,48,0.00,,,0.01,fowsr,2013-10-24 20:10:00,
2013-10-24 16:15:00,51.3,37.1,29.75,East,90,3.1,5.4,48,0.00,,,0.01,fowsr,2013-10-24 20:15:00,
2013-10-24 16:20:00,51.3,37.1,29.75,East,90,7.6,15.9,48,0.00,,,0.00,fowsr,2013-10-24 20:20:00,
2013-10-24 16:25:00,51.3,37.4,29.75,East,90,6.0,9.8,49,0.00,,,0.00,fowsr,2013-10-24 20:25:00,
2013-10-24 16:30:00,51.3,38.2,29.75,NE,45,9.2,13.0,51,0.00,,,0.00,fowsr,2013-10-24 20:30:00,
2013-10-24 16:35:00,51.4,37.2,29.75,SE,135,6.0,9.2,48,0.00,,,0.00,fowsr,2013-10-24 20:35:00,
2013-10-24 16:40:00,51.4,37.6,29.75,East,90,6.9,11.4,49,0.00,,,0.00,fowsr,2013-10-24 20:40:00,
2013-10-24 16:45:00,51.1,36.9,29.75,East,90,4.5,7.6,48,0.00,,,0.00,fowsr,2013-10-24 20:45:00,
2013-10-24 16:55:00,51.6,38.1,29.76,NE,45,8.3,14.5,50,0.00,,,0.00,fowsr,2013-10-24 20:55:00,
2013-10-24 17:00:00,51.8,35.5,29.75,East,90,6.0,10.7,43,0.00,,,0.00,fowsr,2013-10-24 21:00:00,
2013-10-24 17:05:00,51.1,36.5,29.76,East,90,6.0,12.1,47,0.00,,,0.00,fowsr,2013-10-24 21:05:00,
2013-10-24 17:10:00,51.3,37.1,29.76,East,90,7.6,15.2,48,0.00,,,0.00,fowsr,2013-10-24 21:10:00,
2013-10-24 17:15:00,51.1,36.1,29.76,East,90,7.6,14.5,46,0.00,,,0.00,fowsr,2013-10-24 21:15:00,
2013-10-24 17:20:00,51.1,36.9,29.76,East,90,3.1,5.4,48,0.00,,,0.00,fowsr,2013-10-24 21:20:00,
2013-10-24 17:25:00,51.1,36.5,29.77,NE,45,7.6,10.7,47,0.00,,,0.00,fowsr,2013-10-24 21:25:00,
2013-10-24 17:30:00,50.9,36.4,29.76,East,90,7.6,15.2,47,0.00,,,0.00,fowsr,2013-10-24 21:30:00,
2013-10-24 17:35:00,50.7,36.2,29.76,East,90,6.0,9.8,47,0.00,,,0.00,fowsr,2013-10-24 21:35:00,
2013-10-24 17:40:00,50.5,36.0,29.76,ESE,112,8.3,12.1,47,0.00,,,0.00,fowsr,2013-10-24 21:40:00,
2013-10-24 17:45:00,50.4,36.3,29.76,NE,45,6.0,11.4,48,0.00,,,0.00,fowsr,2013-10-24 21:45:00,
2013-10-24 17:50:00,50.4,37.0,29.77,East,90,8.3,14.5,50,0.00,,,0.00,fowsr,2013-10-24 21:50:00,
2013-10-24 17:55:00,50.4,36.3,29.77,East,90,5.4,8.3,48,0.00,,,0.00,fowsr,2013-10-24 21:55:00,
2013-10-24 18:00:00,50.4,36.6,29.77,NW,315,8.3,12.1,49,0.00,,,0.00,fowsr,2013-10-24 22:00:00,
2013-10-24 18:05:00,50.4,37.0,29.77,ENE,67,8.3,16.8,50,0.00,,,0.00,fowsr,2013-10-24 22:05:00,
2013-10-24 18:10:00,50.4,36.3,29.77,SE,135,8.3,14.5,48,0.00,,,0.00,fowsr,2013-10-24 22:10:00,
2013-10-24 18:15:00,50.4,36.3,29.78,SSE,157,5.4,11.4,48,0.00,,,0.00,fowsr,2013-10-24 22:15:00,
2013-10-24 18:20:00,50.4,37.0,29.78,ESE,112,7.6,10.7,50,0.00,,,0.00,fowsr,2013-10-24 22:20:00,
2013-10-24 18:25:00,50.4,37.0,29.78,East,90,4.5,9.8,50,0.00,,,0.00,fowsr,2013-10-24 22:25:00,
2013-10-24 18:30:00,50.5,37.5,29.79,East,90,6.0,14.5,51,0.00,,,0.00,fowsr,2013-10-24 22:30:00,
2013-10-24 18:35:00,50.4,34.7,29.79,ENE,67,11.4,16.8,44,0.00,,,0.00,fowsr,2013-10-24 22:35:00,
2013-10-24 18:40:00,50.4,35.1,29.79,East,90,3.8,6.9,45,0.00,,,0.00,fowsr,2013-10-24 22:40:00,
2013-10-24 18:45:00,50.4,34.7,29.79,ENE,67,3.1,6.0,44,0.00,,,0.00,fowsr,2013-10-24 22:45:00,
2013-10-24 18:50:00,50.4,35.5,29.80,East,90,5.4,15.9,46,0.00,,,0.00,fowsr,2013-10-24 22:50:00,
2013-10-24 19:00:00,50.0,35.2,29.80,East,90,3.8,12.1,46,0.00,,,0.00,fowsr,2013-10-24 23:00:00,
2013-10-24 19:05:00,50.2,35.3,29.81,South,180,4.5,8.3,46,0.00,,,0.00,fowsr,2013-10-24 23:05:00,
2013-10-24 19:10:00,50.2,35.3,29.81,North,0,2.2,4.5,46,0.00,,,0.00,fowsr,2013-10-24 23:10:00,
2013-10-24 19:15:00,50.2,34.9,29.81,SE,135,1.6,3.8,45,0.00,,,0.00,fowsr,2013-10-24 23:15:00,
2013-10-24 19:20:00,50.4,35.9,29.81,East,90,8.3,12.1,47,0.00,,,0.00,fowsr,2013-10-24 23:20:00,
2013-10-24 19:25:00,50.4,35.1,29.81,South,180,2.2,5.4,45,0.00,,,0.00,fowsr,2013-10-24 23:25:00,
2013-10-24 19:30:00,50.2,35.3,29.81,SE,135,5.4,9.2,46,0.00,,,0.00,fowsr,2013-10-24 23:30:00,
2013-10-24 19:35:00,50.2,34.5,29.81,SE,135,5.4,6.9,44,0.00,,,0.00,fowsr,2013-10-24 23:35:00,
2013-10-24 19:40:00,50.2,34.1,29.81,SW,225,2.2,4.5,43,0.00,,,0.00,fowsr,2013-10-24 23:40:00,
2013-10-24 19:45:00,50.2,33.7,29.81,NNE,22,3.8,5.4,42,0.00,,,0.00,fowsr,2013-10-24 23:45:00,
2013-10-24 19:50:00,50.2,34.1,29.81,East,90,1.6,5.4,43,0.00,,,0.00,fowsr,2013-10-24 23:50:00,
2013-10-24 19:55:00,50.2,34.9,29.81,SSW,202,5.4,9.8,45,0.00,,,0.00,fowsr,2013-10-24 23:55:00,
2013-10-24 20:00:00,50.0,34.3,29.81,East,90,3.8,5.4,44,0.00,,,0.00,fowsr,2013-10-25 00:00:00,
2013-10-24 20:05:00,50.0,34.3,29.82,South,180,4.5,8.3,44,0.00,,,0.00,fowsr,2013-10-25 00:05:00,
2013-10-24 20:10:00,50.0,35.5,29.82,East,90,6.0,8.3,47,0.00,,,0.00,fowsr,2013-10-25 00:10:00,
2013-10-24 20:15:00,50.0,34.8,29.82,East,90,3.8,8.3,45,0.00,,,0.00,fowsr,2013-10-25 00:15:00,
2013-10-24 20:20:00,49.8,35.0,29.82,NE,45,7.6,9.8,46,0.00,,,0.00,fowsr,2013-10-25 00:20:00,
2013-10-24 20:25:00,49.6,35.2,29.82,South,180,3.1,6.0,47,0.00,,,0.00,fowsr,2013-10-25 00:25:00,
2013-10-24 20:30:00,49.6,35.2,29.82,SE,135,8.3,10.7,47,0.00,,,0.00,fowsr,2013-10-25 00:30:00,
2013-10-24 20:35:00,49.6,35.2,29.82,East,90,3.8,9.2,47,0.00,,,0.00,fowsr,2013-10-25 00:35:00,
2013-10-24 20:40:00,49.6,36.0,29.82,East,90,5.4,9.2,49,0.00,,,0.00,fowsr,2013-10-25 00:40:00,
2013-10-24 20:45:00,49.6,35.6,29.83,SW,225,3.1,8.3,48,0.00,,,0.00,fowsr,2013-10-25 00:45:00,
2013-10-24 20:50:00,49.5,35.4,29.83,East,90,3.8,7.6,48,0.00,,,0.00,fowsr,2013-10-25 00:50:00,
2013-10-24 20:55:00,49.5,36.5,29.83,SE,135,7.6,11.4,51,0.00,,,0.00,fowsr,2013-10-25 00:55:00,
2013-10-24 21:00:00,49.5,36.5,29.83,East,90,7.6,13.0,51,0.00,,,0.00,fowsr,2013-10-25 01:00:00,
2013-10-24 21:05:00,49.5,37.2,29.83,East,90,3.8,6.0,53,0.00,,,0.00,fowsr,2013-10-25 01:05:00,
2013-10-24 21:10:00,49.3,36.7,29.83,East,90,4.5,6.9,52,0.00,,,0.00,fowsr,2013-10-25 01:10:00,
2013-10-24 21:15:00,49.3,36.0,29.83,South,180,6.0,9.2,50,0.00,,,0.00,fowsr,2013-10-25 01:15:00,
2013-10-24 21:20:00,49.3,37.1,29.83,East,90,6.9,9.8,53,0.00,,,0.00,fowsr,2013-10-25 01:20:00,
2013-10-24 21:25:00,49.1,35.9,29.84,East,90,3.8,5.4,50,0.00,,,0.00,fowsr,2013-10-25 01:25:00,
2013-10-24 21:30:00,49.1,35.5,29.84,ENE,67,4.5,6.9,49,0.00,,,0.00,fowsr,2013-10-25 01:30:00,
2013-10-24 21:35:00,49.1,35.9,29.84,East,90,5.4,9.2,50,0.00,,,0.00,fowsr,2013-10-25 01:35:00,
2013-10-24 21:40:00,49.1,36.6,29.84,NE,45,3.8,6.9,52,0.00,,,0.00,fowsr,2013-10-25 01:40:00,
2013-10-24 21:45:00,49.1,36.2,29.85,East,90,7.6,13.6,51,0.00,,,0.00,fowsr,2013-10-25 01:45:00,
2013-10-24 21:50:00,49.1,35.9,29.85,NE,45,5.4,12.1,50,0.00,,,0.00,fowsr,2013-10-25 01:50:00,
2013-10-24 21:55:00,49.1,35.9,29.85,NE,45,5.4,9.8,50,0.00,,,0.00,fowsr,2013-10-25 01:55:00,
2013-10-24 22:00:00,49.1,36.2,29.85,East,90,6.0,9.2,51,0.00,,,0.00,fowsr,2013-10-25 02:00:00,
2013-10-24 22:05:00,49.1,36.6,29.85,East,90,9.2,13.6,52,0.00,,,0.00,fowsr,2013-10-25 02:05:00,
2013-10-24 22:10:00,49.1,36.9,29.85,East,90,5.4,7.6,53,0.00,,,0.00,fowsr,2013-10-25 02:10:00,
2013-10-24 22:20:00,49.1,36.9,29.85,SE,135,3.1,6.0,53,0.00,,,0.00,fowsr,2013-10-25 02:20:00,
2013-10-24 22:25:00,48.9,37.1,29.85,East,90,8.3,13.0,54,0.00,,,0.00,fowsr,2013-10-25 02:25:00,
2013-10-24 22:30:00,49.1,37.3,29.85,SE,135,5.4,7.6,54,0.00,,,0.00,fowsr,2013-10-25 02:30:00,
2013-10-24 22:35:00,48.9,37.1,29.85,NE,45,5.4,8.3,54,0.00,,,0.00,fowsr,2013-10-25 02:35:00,
2013-10-24 22:40:00,48.9,36.8,29.85,NE,45,5.4,15.2,53,0.00,,,0.00,fowsr,2013-10-25 02:40:00,
2013-10-24 22:45:00,49.1,37.6,29.85,South,180,6.9,9.8,55,0.00,,,0.00,fowsr,2013-10-25 02:45:00,
2013-10-24 22:50:00,48.9,37.4,29.85,East,90,6.9,13.6,55,0.00,,,0.00,fowsr,2013-10-25 02:50:00,
2013-10-24 22:55:00,48.7,37.6,29.85,SW,225,5.4,14.5,56,0.00,,,0.00,fowsr,2013-10-25 02:55:00,
2013-10-24 23:00:00,48.6,37.1,29.85,NNW,337,3.8,5.4,55,0.00,,,0.00,fowsr,2013-10-25 03:00:00,
2013-10-24 23:05:00,48.6,37.4,29.85,SE,135,6.0,9.2,56,0.00,,,0.00,fowsr,2013-10-25 03:05:00,
2013-10-24 23:10:00,48.6,37.8,29.85,East,90,6.0,9.8,57,0.00,,,0.00,fowsr,2013-10-25 03:10:00,
2013-10-24 23:15:00,48.6,37.4,29.85,East,90,6.0,9.2,56,0.00,,,0.00,fowsr,2013-10-25 03:15:00,
2013-10-24 23:20:00,48.6,37.8,29.85,NE,45,6.0,10.7,57,0.00,,,0.00,fowsr,2013-10-25 03:20:00,
2013-10-24 23:25:00,48.6,38.4,29.85,NE,45,7.6,11.4,59,0.00,,,0.00,fowsr,2013-10-25 03:25:00,
2013-10-24 23:30:00,48.4,38.2,29.85,SE,135,3.8,12.1,59,0.00,,,0.00,fowsr,2013-10-25 03:30:00,
2013-10-24 23:35:00,48.4,37.6,29.85,East,90,7.6,15.2,57,0.00,,,0.00,fowsr,2013-10-25 03:35:00,
2013-10-24 23:40:00,48.2,36.8,29.85,NE,45,5.4,13.0,55,0.00,,,0.00,fowsr,2013-10-25 03:40:00,
2013-10-24 23:45:00,48.4,37.6,29.84,SSW,202,3.8,13.0,57,0.00,,,0.00,fowsr,2013-10-25 03:45:00,
2013-10-24 23:50:00,48.2,37.1,29.85,East,90,3.1,6.9,56,0.00,,,0.00,fowsr,2013-10-25 03:50:00,
2013-10-24 23:55:00,48.2,37.1,29.85,East,90,7.6,14.5,56,0.00,,,0.00,fowsr,2013-10-25 03:55:00,